{"data":{"norad_id":58159,"epoch":"2026-05-25T04:44:54.057696Z","epoch_age_seconds":54970,"freshness":"FRESH","line1":"1 58159U 23166K   26145.19784789  .00000581  00000+0  30477-4 0  9995","line2":"2 58159  53.1604 224.1966 0001070 103.5406 256.5715 15.31699193144744","mean_motion":15.31699193,"eccentricity":0.000107,"inclination_deg":53.1604,"raan_deg":224.1966,"arg_perigee_deg":103.5406,"mean_anomaly_deg":256.5715,"bstar":3.0477e-5,"rev_number":14474,"period_min":94.013237493427,"perigee_km":470.00957075582,"apogee_km":471.4752309476,"semimajor_km":6848.8794008517,"source":"CELESTRAK","updated_at":"2026-05-25T13:38:18.538085Z"}}